Flag for Canada Weather past 2 weeks in Montreal, Quebec, Canada

Now
45 °F

Passing clouds.


Feels Like: 38 °F
Forecast: 34 / 54 °F
Wind: 15 mph from West

Location: Montreal - Pierre Elliot Trudeau International Aiport


UV Index: 5 (Moderate)

Visibility: 30 mi


Pressure: 29.93 "Hg

Humidity: 42%

Dew point: 23 °F

Location of MontrealLocation

Historic Weather in Montreal

°F

Montreal temperature yesterday

Maximum temperature yesterday: 52 °F (at 12:00 PM)
Minimum temperature yesterday: 43 °F (at 4:00 AM)
Average temperature yesterday: 46 °F

Past Weeks' High & Low Weather Summary

 TemperatureHumidityPressure
High75 °F (Apr 14, 4:00 PM)100% (Apr 11, 2:00 AM)30.78 "Hg (Apr 11, 2:00 AM)
Low19 °F (Apr 16, 5:00 AM)22% (Apr 19, 7:00 PM)29.36 "Hg (Apr 15, 11:00 AM)
Average44 °F62%30.01 "Hg
* Reported Apr 9 10:00 AM — Apr 24 10:00 AM, Montreal, Weather by CustomWeather, © 2014

Note: Actual official high and low records may vary slightly from our data, if they occured in-between our weather recording intervals... More about our weather records

Advertising

Historic Weather Conditions — Data for Previous 24 hours

 ConditionsComfort  
Time TempWeatherWind HumidityBarometerVisibility
10:00 AM
Apr 24
43 °FPassing clouds.16 mph46%29.93 "Hg30 mi
9:00 AM39 °FPassing clouds.16 mph48%29.93 "Hg30 mi
8:00 AM37 °FPassing clouds.20 mph48%29.91 "Hg30 mi
7:00 AM36 °FPassing clouds.10 mph52%29.90 "Hg30 mi
6:00 AM36 °FPassing clouds.10 mph52%29.88 "Hg30 mi
5:00 AM36 °FPassing clouds.13 mph52%29.86 "Hg15 mi
4:00 AM36 °FPassing clouds.10 mph52%29.84 "Hg15 mi
3:00 AM37 °FClear.10 mph48%29.84 "Hg15 mi
2:00 AM39 °FClear.12 mph45%29.83 "Hg15 mi
1:00 AM39 °FPassing clouds.10 mph45%29.83 "Hg15 mi
12:00 AM41 °FPassing clouds.12 mph45%29.82 "Hg15 mi
11:00 PM
Apr 23
43 °FPassing clouds.13 mph42%29.81 "Hg15 mi
10:00 PM45 °FPassing clouds.13 mph42%29.80 "Hg15 mi
9:00 PM45 °FPassing clouds.20 mph46%29.78 "Hg15 mi
8:00 PM46 °FSprinkles. Partly sunny.17 mph43%29.75 "Hg15 mi
7:00 PM48 °FPartly sunny.18 mph43%29.73 "Hg15 mi
6:00 PM48 °FOvercast.12 mph46%29.71 "Hg15 mi
5:00 PM48 °FMore clouds than sun.16 mph50%29.71 "Hg30 mi
4:00 PM48 °FOvercast.21 mph50%29.68 "Hg30 mi
3:00 PM50 °FOvercast.18 mph47%29.65 "Hg30 mi
2:00 PM52 °FPartly sunny.15 mph44%29.64 "Hg30 mi
1:00 PM52 °FPartly sunny.16 mph47%29.62 "Hg15 mi
12:00 PM52 °FMostly cloudy.15 mph47%29.62 "Hg15 mi
11:00 AM50 °FBroken clouds.15 mph58%29.62 "Hg15 mi
Weather by CustomWeather, © 2014

See weather overview